"Pseudo-MPEC" for P12p4IT

Created 2026 Aug 14 15:35:08 UT using Find_Orb

Click here for an explanation of pseudo-MPECs

 
 Astrometry: 
     P12p4IT*0C2026 08 09.55721101 51 37.212+06 43 39.37   ~89FK 20.47wXNEOCPF51
     P12p4IT 0C2026 08 09.57739501 51 56.707+06 45 41.79   ~89FK 20.79wXNEOCPF51
     P12p4IT 0C2026 08 09.58754101 52 06.548+06 46 43.93   ~89FK 20.62wXNEOCPF51

Station data:
(F51) Pan-STARRS 1, Haleakala  (N20.707234 W156.255910)  US/Hawaii.
   Observers J. Herman, T. Lowe, P. Minguez, A. Schultz, I. Smith. Measurers
   K. Chambers, T. de Boer, J. Fairlamb, H. Gao, M. Huber, C.-C. Lin, E.
   Magnier, Y. Ramanjooloo, R. Wainscoat, R. Weryk. 1.8-m Ritchey-Chrétien +
   CCD.

Orbital elements:  P12p4IT
   Perihelion 2026 Sep 18.360872 +/- 17.4 TT =  8:39:39.3 (JD 2461301.860872)
Epoch 2026 Aug 10.0 TT = JDT 2461262.5   Earth MOID: 0.0024   Ju: 0.6211
M 356.883276085 +/- 41              Ve: 0.0698   Me: 0.0402   Ma: 0.0152
n   0.079183303 +/- 0.317           Peri.  121.598118 +/- 53     AutoNEOCP
a   5.370898810 +/- 14.3            Node   320.071502 +/- 38
e   0.95238334 +/- 0.219            Incl.  166.463641 +/- 60
P  12.44717                H 23.04  G  0.15   U 12.0  SR
q 0.255744226 +/- 0.32    Q 10.48605339 +/- 17.1          (J2000 ecliptic)
From 3 observations 2026 Aug. 9 (43.7 min); mean residual 0".16
Residuals in arcseconds: 
260809 F51  .11-  .01+    260809 F51  .32+  .02-    260809 F51  .21-  .01+    

Ephemerides (geocentric):
Date (UTC) HH   RA             Dec           delta  r     elong  mag " sig PA
---- --------  ------------   ------------  ------ ------ -----  --- --------
2026 08 14 16  12 07 59.378   +04 11 16.28  .08414 .94892  38.9 24??  58d  84
2026 08 14 17  12 08 56.603   +04 05 16.10  .08555 .94808  39.1 24??  58d  84
2026 08 14 18  12 09 51.944   +03 59 27.44  .08697 .94725  39.3 24??  58d  84
2026 08 14 19  12 10 45.489   +03 53 49.77  .08838 .94641  39.5 24??  58d  84
2026 08 14 20  12 11 37.322   +03 48 22.61  .08980 .94557  39.7 24??  58d  84
2026 08 14 21  12 12 27.522   +03 43 05.49  .09122 .94473  39.9 24??  58d  84
2026 08 14 22  12 13 16.164   +03 37 57.98  .09264 .94389  40.1 24??  58d  83
2026 08 14 23  12 14 03.316   +03 32 59.65  .09406 .94305  40.2 24??  58d  83
2026 08 15 00  12 14 49.044   +03 28 10.12  .09549 .94221  40.4 24??  58d  83
2026 08 15 01  12 15 33.410   +03 23 29.03  .09691 .94137  40.6 24??  58d  83
2026 08 15 02  12 16 16.473   +03 18 56.01  .09834 .94053  40.7 24??  58d  83
2026 08 15 03  12 16 58.288   +03 14 30.74  .09976 .93969  40.9 24??  58d  83
2026 08 15 04  12 17 38.906   +03 10 12.90  .10119 .93885  41.0 24??  58d  83
2026 08 15 05  12 18 18.378   +03 06 02.19  .10262 .93801  41.1 24??  58d  83
2026 08 15 06  12 18 56.749   +03 01 58.35  .10405 .93717  41.3 24??  58d  83
2026 08 15 07  12 19 34.064   +02 58 01.08  .10548 .93632  41.4 24??  58d  83
2026 08 15 08  12 20 10.365   +02 54 10.15  .10691 .93548  41.5 24??  58d  83
2026 08 15 09  12 20 45.691   +02 50 25.31  .10835 .93464  41.6 24??  58d  83
2026 08 15 10  12 21 20.081   +02 46 46.33  .10978 .93380  41.8 24??  58d  83
2026 08 15 11  12 21 53.570   +02 43 12.98  .11122 .93296  41.9 24??  58d  83
2026 08 15 12  12 22 26.191   +02 39 45.07  .11265 .93211  42.0 24??  58d  83
2026 08 15 13  12 22 57.978   +02 36 22.40  .11409 .93127  42.1 24??  58d  83
2026 08 15 14  12 23 28.960   +02 33 04.77  .11552 .93043  42.2 24??  58d  83
2026 08 15 15  12 23 59.168   +02 29 52.01  .11696 .92958  42.3 24??  58d  83
2026 08 15 16  12 24 28.629   +02 26 43.94  .11840 .92874  42.4 24??  57d  83
2026 08 15 17  12 24 57.370   +02 23 40.40  .11984 .92789  42.5 24??  57d  83
2026 08 15 18  12 25 25.416   +02 20 41.24  .12128 .92705  42.6 24??  57d  83
2026 08 15 19  12 25 52.790   +02 17 46.30  .12272 .92620  42.6 24??  57d  83
2026 08 15 20  12 26 19.517   +02 14 55.44  .12416 .92536  42.7 24??  57d  83
2026 08 15 21  12 26 45.618   +02 12 08.53  .12560 .92451  42.8 24??  57d  83
2026 08 15 22  12 27 11.114   +02 09 25.43  .12704 .92367  42.9 24??  57d  83
2026 08 15 23  12 27 36.025   +02 06 46.03  .12848 .92282  42.9 24??  57d  83
2026 08 16 00  12 28 00.371   +02 04 10.19  .12993 .92197  43.0 24??  57d  83
2026 08 16 01  12 28 24.170   +02 01 37.81  .13137 .92113  43.1 24??  57d  83
2026 08 16 02  12 28 47.439   +01 59 08.78  .13281 .92028  43.1 24??  57d  82
2026 08 16 03  12 29 10.195   +01 56 42.99  .13426 .91943  43.2 24??  57d  82
2026 08 16 04  12 29 32.455   +01 54 20.34  .13570 .91859  43.3 24??  57d  82
2026 08 16 05  12 29 54.233   +01 52 00.74  .13715 .91774  43.3 24??  57d  82
2026 08 16 06  12 30 15.545   +01 49 44.08  .13859 .91689  43.4 24??  57d  82
2026 08 16 07  12 30 36.405   +01 47 30.29  .14004 .91604  43.4 24??  57d  82
2026 08 16 08  12 30 56.827   +01 45 19.27  .14149 .91519  43.5 24??  57d  82
2026 08 16 09  12 31 16.824   +01 43 10.95  .14293 .91434  43.5 24??  57d  82
2026 08 16 10  12 31 36.407   +01 41 05.25  .14438 .91349  43.6 24??  56d  82
2026 08 16 11  12 31 55.590   +01 39 02.08  .14583 .91265  43.6 24??  56d  82
2026 08 16 12  12 32 14.385   +01 37 01.39  .14728 .91180  43.7 24??  56d  82
2026 08 16 13  12 32 32.801   +01 35 03.08  .14872 .91095  43.7 24??  56d  82
2026 08 16 14  12 32 50.850   +01 33 07.11  .15017 .91010  43.8 24??  56d  82
2026 08 16 15  12 33 08.543   +01 31 13.40  .15162 .90924  43.8 24??  56d  82